Regional Weather Roundup
Issued by NWS

Home | Current Version | Previous Version | Graphics & Text | Print | Product List | Glossary Off
Versions: 1 2 3 4 5 6 7 8 9 10 11 12 13 14 15 16 17 18 19 20 21 22 23 24 25 26 27 28 29 30 31 32 33 34 35 36 37 38 39 40 41 42 43 44 45 46 47 48 49 50

000
ASUS43 KMKX 020800
RWRWI

WISCONSIN REGIONAL WEATHER ROUNDUP
NATIONAL WEATHER SERVICE MILWAUKEE/SULLIVAN WI
300 AM CDT THU OCT 02 2014

NOTE: "FAIR" INDICATES FEW OR NO CLOUDS BELOW 12,000 FEET WITH NO
SIGNIFICANT WEATHER AND/OR OBSTRUCTIONS TO VISIBILITY.

WIZ001-002-006>008-014>016-023>028-020900-
NORTHWEST WISCONSIN

CITY           SKY/WX    TMP DP  RH WIND       PRES   REMARKS
SUPERIOR ARPT  CLOUDY    52  52 100 S3        29.82F FOG
ASHLAND        CLOUDY    55  54  96 CALM      29.85S FOG
HAYWARD        CLOUDY    55  55 100 CALM      29.84F FOG
SIREN          CLOUDY    55  54  98 SE3       29.84S FOG
CUMBERLAND     CLOUDY    54  52  94 CALM      29.84S FOG
RICE LAKE      CLOUDY    55  54  96 CALM      29.85F FOG
CHETEK         CLOUDY    55  55  97 CALM      29.85S FOG
LADYSMITH      CLOUDY    53  52  97 CALM      29.86F FOG
EAU CLAIRE     NOT AVBL
MENOMONIE      CLOUDY    56  55  97 CALM      29.84S FOG
NEW RICHMOND   CLOUDY    56  56  99 CALM      29.85R FOG
OSCEOLA        CLOUDY    56  56 100 SE3       29.87R FOG
$$

WIZ003>005-009-010-017-018-020900-
NORTH CENTRAL WISCONSIN

CITY           SKY/WX    TMP DP  RH WIND       PRES   REMARKS
MANITOWISH WTR CLOUDY    54  54 100 S5        29.86F FOG
ARBOR VITAE    CLOUDY    57  55  94 SE3       29.87F FOG
WOODRUFF       CLOUDY    57  55  94 SE3       29.87F FOG
RHINELANDER    CLOUDY    51  50  96 SE3       29.88F FOG
EAGLE RIVER    CLOUDY    53  52  98 CALM      29.88S FOG
LAND O LAKES   CLOUDY    54  52  94 CALM      29.89F FOG
PHILLIPS       MOCLDY    52  52  99 CALM      29.85F FOG
TOMAHAWK       PTCLDY    52  50  93 CALM      29.88F FOG
MEDFORD        MOCLDY    53  52  96 CALM      29.86S FOG
MERRILL        MOCLDY    54  53  97 CALM      29.87F FOG
$$

WIZ029-030-035-036-043>047-020900-
CENTRAL WISCONSIN

CITY           SKY/WX    TMP DP  RH WIND       PRES   REMARKS
WAUSAU         CLOUDY    56  52  86 SE7       29.85F
MOSINEE        CLOUDY    54  54 100 E3        29.87F
MARSHFIELD     MOCLDY    56  53  90 E5        29.84F
STEVENS POINT  LGT RAIN  53  53  97 E3        29.86F
WAUPACA        CLOUDY    58  56  94 CALM      29.87F FOG
WAUTOMA        NOT AVBL
WISC RAPIDS    CLOUDY    57  55  93 CALM      29.86F
CAMP DOUGLAS   CLOUDY    59  59 100 SW2       29.84F
$$

WIZ011>013-019>022-031-037>040-048>050-020900-
NORTHEAST WISCONSIN

CITY           SKY/WX    TMP DP  RH WIND       PRES   REMARKS
ANTIGO         CLOUDY    52  52  99 SE5       29.88F FOG
SHAWANO        CLOUDY    57  54  91 NE3       29.88F FOG
OCONTO         CLOUDY    54  54 100 CALM      29.88F
STURGEON BAY   NOT AVBL
GREEN BAY      CLOUDY    57  56  96 CALM      29.87F
MANITOWOC      NOT AVBL
APPLETON       CLOUDY    55  54  94 NE3       29.87S FOG
CLINTONVILLE   CLOUDY    54  54 100 CALM      29.87F FOG
OSHKOSH        CLOUDY    57  56  96 CALM      29.85F
$$

WIZ032>034-041-042-053>061-020900-
SOUTHWEST WISCONSIN

CITY           SKY/WX    TMP DP  RH WIND       PRES   REMARKS
LA CROSSE      CLOUDY    60  57  89 S6        29.82F
SPARTA         CLOUDY    59  57  94 S3        29.85S
VIROQUA        MOCLDY    60  60 100 CALM      29.84F
BOSCOBEL       CLOUDY    63  59  87 CALM      29.83F
PRAIRIE DU CHI CLOUDY    64  59  85 CALM      29.82F
PLATTEVILLE    CLOUDY    62  59  90 N3        29.84F
$$

WIZ056-057-062-063-064-067-068-020900-
SOUTH CENTRAL WISCONSIN

CITY           SKY/WX    TMP DP  RH WIND       PRES   REMARKS
REEDSBURG      CLOUDY    60  56  87 CALM      29.85S
BARABOO/DELLS  MOCLDY    60  54  80 SW3       29.85S
LONE ROCK      NOT AVBL
MINERAL POINT  CLOUDY    63  57  82 CALM      29.85F
MADISON        CLOUDY    62  55  77 S3        29.84F
MIDDLETON      CLOUDY    60  56  85 CALM      29.85S
WATERTOWN      CLOUDY    60  56  87 CALM      29.85F
MONROE         CLOUDY    61  55  82 SE3       29.84F
JANESVILLE     CLOUDY    64  54  68 SE7       29.85S
$$

WIZ051-052-058>065-066-070>072-020900-
SOUTHEAST WISCONSIN

CITY           SKY/WX    TMP DP  RH WIND       PRES   REMARKS
MILWAUKEE      CLOUDY    63  54  72 S8        29.87F
WAUKESHA       CLOUDY    59  54  82 S5        29.88F
MILWAUKEE/TIMM CLOUDY    63  52  67 SE3       29.87F
RACINE         CLOUDY    63  56  78 S12       29.88F
BURLINGTON     CLOUDY    58  56  92 S3        29.87S
KENOSHA        NOT AVBL
FOND DU LAC    CLOUDY    58  54  86 CALM      29.85F
SHEBOYGAN      CLOUDY    60  56  86 S10       29.88F
WEST BEND      CLOUDY    57  54  88 CALM      29.87F
JUNEAU         CLOUDY    60  55  82 SE7       29.87S
$$

LSZ147-162-020900-
LAKE SUPERIOR

STATION/POSITION TIME  TEMP    WIND        PRES    WAVE
                       AIR SEA DIR/SP/G            HT/PER
                 (UTC) (F)     (DEG/KT/KT) (MB)    (FT/S)
W MID LAKE BUOY  0650   51 49  170/  6/  6 1010.6F   0
DEVILS ISLAND    0700   54     260/  7/ 10 1010.6F
SAXON HARBOR     0700   53        CALM     1010.5S
$$

LMZ867-665-643>646-020900-
LAKE MICHIGAN

STATION/POSITION TIME  TEMP    WIND        PRES    WAVE
                       AIR SEA DIR/SP/G            HT/PER
                 (UTC) (F)     (DEG/KT/KT) (MB)    (FT/S)
CHAMBERS ISLAND  0700   56     140/  4/  8 1012.9S
S GREEN BAY BUOY 0700   59                 1013.3F
N MID LAKE BUOY  0650   58 58  160/ 10/ 12 1013.5R   2/ 5
NORTHPORT PIER   0700   56     160/  6/ 11 1013.5R
SISTER BAY       0712          170/ 11/ 17   N/A
KEWAUNEE LAKESHO 0700   56     160/  6/  6 1011.6F
SHEBOYGAN LAKESH 0700   58 56  190/  9/ 10 1012.4F
PORT WASHINGTON  0700   59     170/  2/  4 1012.5F
ATWATER BUOY     0700   60     150/ 12/ 14 1012.9F
MILWAUKEE LAKESH 0700   60     150/  9/ 10   N/A
S MID LAKE BUOY  0650   64 62  150/ 17/ 21 1012.4F   3/ 5
KENOSHA   LAKESH 0700   61     170/  8/ 10 1011.9F
$$

TC  - TEMPERATURE IN CELSIUS
VSB - VISIBILITY IN STATUTE MILES
WCI - WIND CHILL INDEX
HX  - HEAT INDEX



USA.gov is the U.S. government's official web portal to all federal, state and local government web resources and services.